Stündliche Wetter Celinnyy

Heute, 27 Januar, Mittwoch

Zeit Temperatur Niederschläge Wind Luftdruck Luftfeuchtigkeit
00:00 -29°C° 0 mm 2 m/S 705 mmHg 93%
01:00 -30°C° 0 mm 2 m/S 705 mmHg 93%
02:00 -30°C° 0 mm 2 m/S 705 mmHg 93%
03:00 -31°C° 0 mm 2 m/S 705 mmHg 94%
04:00 -31°C° 0 mm 2 m/S 705 mmHg 94%
05:00 -31°C° 0 mm 2 m/S 705 mmHg 94%
06:00 -29°C° 0 mm 1 m/S 705 mmHg 94%
07:00 -30°C° 0 mm 1 m/S 706 mmHg 94%
08:00 -29°C° 0 mm 1 m/S 706 mmHg 93%
09:00 -30°C° 0 mm 2 m/S 706 mmHg 91%
10:00 -29°C° 0 mm 2 m/S 706 mmHg 89%
11:00 -28°C° 0 mm 2 m/S 706 mmHg 87%
12:00 -27°C° 0 mm 2 m/S 706 mmHg 86%
13:00 -27°C° 0 mm 3 m/S 706 mmHg 84%
14:00 -29°C° 0 mm 3 m/S 707 mmHg 85%
15:00 -29°C° 0 mm 3 m/S 707 mmHg 87%
16:00 -29°C° 0 mm 3 m/S 707 mmHg 88%
17:00 -29°C° 0 mm 2 m/S 707 mmHg 88%
18:00 -30°C° 0 mm 2 m/S 708 mmHg 88%
19:00 -32°C° 0 mm 2 m/S 708 mmHg 88%
20:00 -32°C° 0 mm 2 m/S 708 mmHg 89%
21:00 -31°C° 0 mm 1 m/S 708 mmHg 89%
22:00 -32°C° 0 mm 1 m/S 708 mmHg 90%
23:00 -33°C° 0 mm 1 m/S 707 mmHg 91%

Morgen, 28 Januar, Donnerstag

Zeit Temperatur Niederschläge Wind Luftdruck Luftfeuchtigkeit
00:00 -33°C° 0 mm 1 m/S 707 mmHg 92%
01:00 -34°C° 0 mm 1 m/S 707 mmHg 94%
02:00 -34°C° 0 mm 1 m/S 706 mmHg 94%
03:00 -34°C° 0 mm 1 m/S 706 mmHg 95%
04:00 -35°C° 0 mm 1 m/S 705 mmHg 96%
05:00 -33°C° 0 mm 0 m/S 705 mmHg 96%
06:00 -33°C° 0 mm 0 m/S 705 mmHg 96%
07:00 -32°C° 0 mm 0 m/S 705 mmHg 95%
08:00 -31°C° 0 mm 0 m/S 704 mmHg 93%
09:00 -29°C° 0 mm 0 m/S 704 mmHg 90%
10:00 -28°C° 0 mm 0 m/S 704 mmHg 88%
11:00 -28°C° 0 mm 1 m/S 703 mmHg 86%
12:00 -25°C° 0 mm 1 m/S 703 mmHg 85%
13:00 -24°C° 0 mm 1 m/S 702 mmHg 83%
14:00 -25°C° 0 mm 1 m/S 702 mmHg 87%
15:00 -27°C° 0 mm 1 m/S 701 mmHg 91%
16:00 -27°C° 0 mm 1 m/S 701 mmHg 95%
17:00 -28°C° 0 mm 1 m/S 701 mmHg 96%
18:00 -28°C° 0 mm 1 m/S 701 mmHg 97%
19:00 -29°C° 0 mm 1 m/S 701 mmHg 98%
20:00 -29°C° 0 mm 1 m/S 700 mmHg 98%
21:00 -29°C° 0 mm 1 m/S 700 mmHg 98%
22:00 -28°C° 0 mm 1 m/S 699 mmHg 98%
23:00 -27°C° 0 mm 1 m/S 699 mmHg 98%

übermorgen, 29 Januar, Freitag

Zeit Temperatur Niederschläge Wind Luftdruck Luftfeuchtigkeit
00:00 -25°C° 0 mm 1 m/S 698 mmHg 98%
01:00 -25°C° 0 mm 1 m/S 698 mmHg 98%
02:00 -24°C° 0.1 mm 1 m/S 697 mmHg 98%
03:00 -26°C° 0.1 mm 2 m/S 697 mmHg 98%
04:00 -25°C° 0.1 mm 2 m/S 696 mmHg 97%
05:00 -26°C° 0 mm 3 m/S 697 mmHg 93%
06:00 -27°C° 0 mm 4 m/S 697 mmHg 89%
07:00 -27°C° 0 mm 5 m/S 697 mmHg 85%
08:00 -26°C° 0 mm 4 m/S 697 mmHg 81%
09:00 -27°C° 0 mm 4 m/S 698 mmHg 78%
10:00 -26°C° 0 mm 3 m/S 698 mmHg 74%
11:00 -26°C° 0 mm 3 m/S 699 mmHg 73%
12:00 -25°C° 0 mm 3 m/S 700 mmHg 71%
13:00 -25°C° 0 mm 3 m/S 700 mmHg 70%
14:00 -25°C° 0 mm 2 m/S 701 mmHg 74%
15:00 -27°C° 0 mm 2 m/S 701 mmHg 78%
16:00 -25°C° 0 mm 1 m/S 701 mmHg 82%
17:00 -27°C° 0 mm 1 m/S 702 mmHg 83%
18:00 -29°C° 0 mm 1 m/S 702 mmHg 84%
19:00 -30°C° 0 mm 1 m/S 702 mmHg 84%
20:00 -29°C° 0 mm 0 m/S 702 mmHg 85%
21:00 -30°C° 0 mm 0 m/S 702 mmHg 86%
22:00 -30°C° 0 mm 0 m/S 702 mmHg 87%
23:00 -30°C° 0 mm 0 m/S 702 mmHg 87%

30 Januar, Samstag

Zeit Temperatur Niederschläge Wind Luftdruck Luftfeuchtigkeit
00:00 -29°C° 0 mm 0 m/S 701 mmHg 88%
01:00 -29°C° 0 mm 0 m/S 701 mmHg 88%
02:00 -29°C° 0 mm 0 m/S 701 mmHg 89%
03:00 -30°C° 0 mm 1 m/S 701 mmHg 89%
04:00 -29°C° 0 mm 1 m/S 701 mmHg 90%
05:00 -29°C° 0 mm 1 m/S 701 mmHg 90%
06:00 -28°C° 0 mm 0 m/S 701 mmHg 91%
07:00 -28°C° 0 mm 0 m/S 701 mmHg 91%
08:00 -27°C° 0 mm 0 m/S 701 mmHg 89%
09:00 -27°C° 0 mm 0 m/S 701 mmHg 87%
10:00 -26°C° 0 mm 0 m/S 702 mmHg 85%
11:00 -25°C° 0 mm 0 m/S 701 mmHg 85%
12:00 -24°C° 0 mm 1 m/S 701 mmHg 85%
13:00 -23°C° 0 mm 1 m/S 701 mmHg 85%
14:00 -23°C° 0 mm 1 m/S 701 mmHg 88%
15:00 -23°C° 0 mm 0 m/S 701 mmHg 91%
16:00 -24°C° 0 mm 0 m/S 701 mmHg 94%
17:00 -24°C° 0 mm 0 m/S 701 mmHg 95%
18:00 -25°C° 0 mm 0 m/S 701 mmHg 95%
19:00 -26°C° 0 mm 0 m/S 701 mmHg 95%
20:00 -27°C° 0 mm 0 m/S 700 mmHg 96%
21:00 -27°C° 0 mm 0 m/S 700 mmHg 96%
22:00 -28°C° 0 mm 0 m/S 700 mmHg 96%
23:00 -28°C° 0 mm 0 m/S 700 mmHg 96%

31 Januar, Sonntag

Zeit Temperatur Niederschläge Wind Luftdruck Luftfeuchtigkeit
00:00 -28°C° 0 mm 0 m/S 700 mmHg 96%
01:00 -28°C° 0 mm 0 m/S 700 mmHg 96%
02:00 -28°C° 0 mm 0 m/S 700 mmHg 96%
03:00 -28°C° 0 mm 0 m/S 700 mmHg 96%
04:00 -28°C° 0 mm 0 m/S 699 mmHg 96%
05:00 -28°C° 0 mm 0 m/S 700 mmHg 96%
06:00 -29°C° 0 mm 1 m/S 700 mmHg 96%
07:00 -29°C° 0 mm 1 m/S 701 mmHg 97%
08:00 -27°C° 0 mm 1 m/S 702 mmHg 93%
09:00 -27°C° 0 mm 2 m/S 702 mmHg 89%
10:00 -25°C° 0 mm 2 m/S 703 mmHg 86%
11:00 -25°C° 0 mm 3 m/S 704 mmHg 83%
12:00 -25°C° 0 mm 4 m/S 704 mmHg 80%
13:00 -24°C° 0 mm 4 m/S 705 mmHg 77%
14:00 -26°C° 0 mm 4 m/S 706 mmHg 80%
15:00 -27°C° 0 mm 4 m/S 706 mmHg 83%
16:00 -29°C° 0 mm 4 m/S 707 mmHg 86%
17:00 -31°C° 0 mm 4 m/S 707 mmHg 88%
18:00 -32°C° 0 mm 3 m/S 707 mmHg 89%
19:00 -32°C° 0 mm 2 m/S 708 mmHg 91%
20:00 -32°C° 0 mm 2 m/S 708 mmHg 92%
21:00 -34°C° 0 mm 2 m/S 709 mmHg 92%
22:00 -35°C° 0 mm 2 m/S 709 mmHg 93%
23:00 -36°C° 0 mm 2 m/S 709 mmHg 94%

1 Februar, Montag

Zeit Temperatur Niederschläge Wind Luftdruck Luftfeuchtigkeit
00:00 -33°C° 0 mm 1 m/S 709 mmHg 95%
01:00 -34°C° 0 mm 1 m/S 709 mmHg 95%
02:00 -34°C° 0 mm 1 m/S 709 mmHg 96%
03:00 -34°C° 0 mm 1 m/S 709 mmHg 96%
04:00 -34°C° 0 mm 1 m/S 709 mmHg 96%
05:00 -33°C° 0 mm 1 m/S 708 mmHg 96%
06:00 -33°C° 0 mm 1 m/S 708 mmHg 96%
07:00 -33°C° 0 mm 1 m/S 708 mmHg 95%
08:00 -31°C° 0 mm 1 m/S 708 mmHg 93%
09:00 -30°C° 0 mm 1 m/S 708 mmHg 90%
10:00 -29°C° 0 mm 1 m/S 708 mmHg 88%
11:00 -27°C° 0 mm 1 m/S 707 mmHg 86%
12:00 -25°C° 0 mm 1 m/S 707 mmHg 84%
13:00 -24°C° 0 mm 1 m/S 706 mmHg 82%
14:00 -25°C° 0 mm 1 m/S 706 mmHg 86%
15:00 -27°C° 0 mm 1 m/S 706 mmHg 89%
16:00 -27°C° 0 mm 0 m/S 706 mmHg 93%
17:00 -28°C° 0 mm 0 m/S 706 mmHg 94%
18:00 -29°C° 0 mm 0 m/S 706 mmHg 94%
19:00 -29°C° 0 mm 0 m/S 707 mmHg 95%
20:00 -30°C° 0 mm 0 m/S 707 mmHg 95%
21:00 -30°C° 0 mm 0 m/S 707 mmHg 96%
22:00 -31°C° 0 mm 0 m/S 707 mmHg 96%
23:00 -31°C° 0 mm 0 m/S 706 mmHg 96%
Mehr zeigen

Wir brauchen deine Erlaubnis

Meteoprog und unser Service Anbieter werden persönliche Daten aufbewahren, so wie Cookies, Geräte Bezeichnung oder ähnliche Technologien von deinem Gerät und Prozess, so wie Persönliche Daten Inhalte und Werbungen, genauso wie social Media und den Verkehr zu analysieren.

  • Aufbewahrung und/oder Zugang zu deiner Geräte Informationen.

    Cookies, Geräte Bezeichnung oder andere Informationen, können aufbewahrt oder Zugang zu deinem Gerät erhalten, für den Grund, der oben angegeben wird.

  • Personalisierte Werbung und Inhalte, Messungen, Einblick in das Publikum und Produkt Entwicklung.

    Werbungen und Inhalte können personalisiert werden, basierend auf ein Profil. Mehr Daten können besser personalisierte Werbungen und Inhalte hinzufügen. Werbung und Inhalte können gezeigt und gemessen werden. Einblicke über das Publikum, welche die Werbung gesehen haben und den Inhalt, können abgeleitet werden. So wie Daten können genutzt werden, um es zu verbessern oder die Benutzer Erfahrung zu verbessern das System und die Software.

Wenn du “Ich stimme zu” klickst, erlaubst du uns, die Cookies zu benutzen die Geräte Bezeichnung, den Web oder ähnliche Technologien zu benutzen. Deine Settings, können in deinem Gerät bei deinem Browser geändert werden.

Für den bestimmten Zweck, berechtigten Interessen beruhen darauf, mehr als auf den Inhalt. Du kannst mehr darüber in unseren Privaten und Cookie Politik lesen.